Flag for U.S.A. Weather past 2 weeks in Augusta, Maine, U.S.A.

Now
38 °F

Passing clouds.


Feels Like: 35 °F
Forecast: 35 / 55 °F
Wind: 3 mph from Northwest

Location: Augusta State Airport

Current Time: Apr 26, 2015 at 6:24:12 AM

Latest Report: Apr 26, 2015 at 5:53 AM


Visibility: 10 mi

Pressure: 29.65 "Hg

Humidity: 76%

Dew point: 31 °F

Location of AugustaLocation

Historic Weather in Augusta — Graph

°F

Augusta temperature yesterday

Maximum temperature yesterday: 47 °F (at 3:53 PM)
Minimum temperature yesterday: 33 °F (at 2:53 AM)
Average temperature yesterday: 40 °F

Past Weeks' High & Low Weather Summary

 TemperatureHumidityPressure
High68 °F (Apr 13, 2:53 PM)97% (Apr 11, 4:53 AM)30.47 "Hg (Apr 11, 4:53 AM)
Low33 °F (Apr 16, 5:53 AM)13% (Apr 15, 2:53 PM)29.39 "Hg (Apr 23, 3:53 AM)
Average46 °F57%29.94 "Hg
* Reported Apr 11 4:53 AM — Apr 26 4:53 AM, Augusta, Weather by CustomWeather, © 2015

Note: Actual official high and low records may vary slightly from our data, if they occured in-between our weather recording intervals... More about our weather records

Advertising

Augusta weather history for previous 24 hours

 ConditionsComfort  
Time TempWeatherWind HumidityBarometerVisibility
4:53 AM
Sun, Apr 26
38 °FOvercast.3 mph76%29.64 "Hg10 mi
3:53 AM39 °FOvercast.No wind73%29.64 "Hg10 mi
2:53 AM39 °FMostly cloudy.6 mph73%29.65 "Hg10 mi
1:53 AM39 °FPassing clouds.6 mph73%29.67 "Hg10 mi
12:53 AM40 °FOvercast.6 mph68%29.68 "Hg10 mi
11:53 PM
Sat, Apr 25
40 °FOvercast.6 mph68%29.69 "Hg10 mi
10:53 PM41 °FMostly cloudy.6 mph65%29.70 "Hg10 mi
9:53 PM41 °FOvercast.6 mph65%29.70 "Hg10 mi
8:53 PM42 °FOvercast.6 mph62%29.70 "Hg10 mi
7:53 PM42 °FLight rain. Mostly cloudy.7 mph68%29.69 "Hg10 mi
6:53 PM45 °FPartly sunny.5 mph51%29.68 "Hg10 mi
5:53 PM47 °FOvercast.12 mph46%29.67 "Hg10 mi
4:53 PM47 °FMostly cloudy.6 mph46%29.67 "Hg10 mi
3:53 PM47 °FOvercast.12 mph46%29.67 "Hg10 mi
2:53 PM46 °FOvercast.7 mph48%29.67 "Hg10 mi
1:53 PM46 °FOvercast.8 mph46%29.67 "Hg10 mi
12:53 PM45 °FOvercast.9 mph45%29.67 "Hg10 mi
11:53 AM44 °FOvercast.10 mph49%29.67 "Hg10 mi
10:53 AM41 °FCloudy.9 mph58%29.69 "Hg10 mi
9:53 AM40 °FMostly cloudy.12 mph58%29.69 "Hg10 mi
8:53 AM39 °FMore clouds than sun.14 mph55%29.69 "Hg10 mi
7:53 AM36 °FPartly sunny.8 mph59%29.69 "Hg10 mi
6:53 AM35 °FBroken clouds.7 mph61%29.70 "Hg10 mi
Weather by CustomWeather, © 2015

See weather overviewHow to use our weather pages